カタログに戻る

STARLINK-37232

運用中通信VLEO
NORAD 69515·PAYLOAD·🇺🇸 United States

打ち上げ Jun 12, 2026 から Cape Canaveral Space Force Station

Loading…

次のパス (今後24時間)

TLE

最新Source: CelesTrak SupGP

元期: Sep 15, 2026, 04:19 UTC

1 69515C 26133H   26258.18034722 -.00051290  00000+0 -15154-2 0  2585
2 69515  53.1563 254.6966 0001485  88.8226 352.5379 15.34416044    18

AllMySatでSTARLINK-37232をリアルタイム追跡

Download on the App Store